This is the latest recevied weather packets stored in our database for station/object W4KAB. If no packets are shown the sender has not sent any weather packets the latest 10 day(s).
| Time | Temp. | Humidity | Pressure | Rain* | Wind** | Luminosity | Snow |
|---|---|---|---|---|---|---|---|
| 1777634916 | 8.89° C | 77% | 1017.4 hPa | 0 mm | - | 13 W/m² | - |
| 1777634613 | 8.89° C | 78% | 1017.4 hPa | 0 mm | - | 9 W/m² | - |
| 1777634311 | 8.89° C | 76% | 1017.4 hPa | 0 mm | - | 6 W/m² | - |
| 1777634006 | 8.89° C | 77% | 1017.3 hPa | 0 mm | - | 6 W/m² | - |
| 1777633703 | 8.89° C | 77% | 1017.4 hPa | 0 mm | - | 6 W/m² | - |
| 1777633402 | 8.89° C | 76% | 1017.2 hPa | 0 mm | - | 5 W/m² | - |
| 1777633099 | 8.89° C | 77% | 1017.4 hPa | 0 mm | - | 3 W/m² | - |
| 1777632795 | 8.89° C | 76% | 1017.2 hPa | 0 mm | - | 2 W/m² | - |
| 1777632491 | 8.89° C | 76% | 1017.3 hPa | 0 mm | - | 1 W/m² | - |
| 1777632189 | 8.89° C | 75% | 1017.1 hPa | 0 mm | - | 0 W/m² | - |
| 1777631885 | 8.89° C | 75% | 1017.2 hPa | 0 mm | - | 0 W/m² | - |
| 1777631584 | 9.44° C | 75% | 1017 hPa | 0 mm | - | 0 W/m² | - |
| 1777631281 | 8.89° C | 72% | 1017 hPa | 0 mm | - | 0 W/m² | - |
| 1777630978 | 9.44° C | 73% | 1016.8 hPa | 0 mm | - | 0 W/m² | - |
| 1777630673 | 9.44° C | 73% | 1016.8 hPa | 0 mm | - | 0 W/m² | - |
| 1777630371 | 9.44° C | 71% | 1017 hPa | 0 mm | - | 0 W/m² | - |
| 1777630068 | 9.44° C | 72% | 1016.6 hPa | 0 mm | - | 0 W/m² | - |
| 1777629765 | 9.44° C | 70% | 1016.3 hPa | 0 mm | - | 0 W/m² | - |
| 1777629462 | 9.44° C | 73% | 1016.7 hPa | 0 mm | - | 0 W/m² | - |
| 1777629158 | 9.44° C | 72% | 1016.3 hPa | 0 mm | - | 0 W/m² | - |
| 1777628854 | 9.44° C | 69% | 1016.2 hPa | 0 mm | - | 0 W/m² | - |
| 1777628552 | 9.44° C | 68% | 1016.6 hPa | 0 mm | - | 0 W/m² | - |
| 1777628247 | 10° C | 66% | 1016.6 hPa | 0 mm | - | 0 W/m² | - |
| 1777627942 | 9.44° C | 67% | 1016.6 hPa | 0 mm | - | 0 W/m² | - |
| 1777627637 | 9.44° C | 67% | 1016.3 hPa | 0 mm | - | 0 W/m² | - |
* Rain latest hour (hover to see other rain measurements)
** Current wind speed in m/s (hover to see current wind gust speed)